N4TRF-13 Weather Reports


time (UTC)temp
F
wind
direction
speed
knots
gust
knots
rain 1hr
in
rain 24hr
in
rain mn
in
humidity
%
barometer
mb
20260504191720 82 173 2.6 6.1 0.00 0.00 0.00 51 1013.0
20260504191207 82 151 2.6 6.1 0.00 0.00 0.00 48 1013.0
20260504190706 83 148 4.3 9.6 0.00 0.00 0.00 47 1013.0
20260504190207 83 228 1.7 2.6 0.00 0.00 0.00 49 1013.0
20260504185707 82 228 3.5 7.0 0.00 0.00 0.00 47 1013.0
20260504185207 82 178 5.2 8.7 0.00 0.00 0.00 48 1013.0
20260504184706 83 114 3.5 8.7 0.00 0.00 0.00 49 1013.0
20260504184206 83 206 2.6 6.1 0.00 0.00 0.00 50 1013.0
20260504183706 83 135 2.6 5.2 0.00 0.00 0.00 47 1013.0
20260504183207 82 175 1.7 5.2 0.00 0.00 0.00 49 1014.0
20260504182706 82 329 2.6 6.1 0.00 0.00 0.00 51 1014.0
20260504182206 80 145 2.6 7.8 0.00 0.00 0.00 48 1014.0
20260504181707 81 238 4.3 7.8 0.00 0.00 0.00 50 1014.0
20260504181206 81 260 2.6 6.1 0.00 0.00 0.00 50 1014.0
20260504180708 82 10 2.6 7.0 0.00 0.00 0.00 50 1014.0
20260504180206 82 187 1.7 4.3 0.00 0.00 0.00 53 1014.0
20260504175706 81 171 3.5 7.0 0.00 0.00 0.00 52 1014.0
20260504175206 81 290 2.6 7.8 0.00 0.00 0.00 55 1014.0
20260504174706 80 248 3.5 10.4 0.00 0.00 0.00 53 1014.0
20260504174206 81 217 2.6 6.1 0.00 0.00 0.00 52 1014.0
20260504173707 81 183 2.6 7.8 0.00 0.00 0.00 53 1014.0
20260504173206 81 272 2.6 7.0 0.00 0.00 0.00 52 1014.0
20260504172707 82 229 2.6 8.7 0.00 0.00 0.00 50 1014.0
20260504172206 82 101 2.6 6.1 0.00 0.00 0.00 52 1014.0
20260504171708 81 142 2.6 6.1 0.00 0.00 0.00 53 1014.0
20260504171206 81 126 1.7 7.0 0.00 0.00 0.00 57 1014.0
20260504170706 80 262 2.6 7.8 0.00 0.00 0.00 55 1014.0
20260504170207 79 190 3.5 8.7 0.00 0.00 0.00 55 1015.0
20260504160207 77 96 0.9 4.3 0.00 0.00 0.00 58 1016.0
20260504150707 73 181 0.9 4.3 0.00 0.00 0.00 64 1016.0
20260504150206 73 212 0.9 3.5 0.00 0.00 0.00 67 1016.0
20260504141209 68 127 1.7 5.2 0.00 0.00 0.00 71 1016.0
20260504140710 68 301 0.9 5.2 0.00 0.00 0.00 71 1016.0
20260504140206 67 110 0.9 2.6 0.00 0.00 0.00 73 1016.0
20260504130710 62 117 0.9 4.3 0.00 0.00 0.00 79 1016.0
20260504130207 62 104 0.9 5.2 0.00 0.00 0.00 78 1016.0
20260504120206 53 47 0.0 0.9 0.00 0.00 0.00 91 1016.0
20260504110706 50 125 0.0 0.0 0.00 0.00 0.00 92 1015.0
20260504110206 51 110 0.0 0.0 0.00 0.00 0.00 92 1015.0
20260504100206 51 157 0.0 0.0 0.00 0.00 0.00 89 1015.0
20260504081706 51 148 0.0 1.7 0.00 0.00 0.00 88 1016.0
20260504081207 51 137 0.0 0.0 0.00 0.00 0.00 88 1016.0
20260504080707 51 176 0.0 0.0 0.00 0.00 0.00 88 1016.0
20260504080206 51 137 0.0 0.0 0.00 0.00 0.00 88 1016.0
20260504070206 49 156 0.0 0.0 0.00 0.00 0.00 91 1016.0
20260504060206 51 143 0.0 0.0 0.00 0.00 0.00 84 1017.0
20260504050706 54 185 0.0 0.0 0.00 0.00 0.00 76 1017.0
20260504050206 55 31 0.0 0.0 0.00 0.00 0.88 75 1017.0
20260504045705 55 188 0.0 0.0 0.00 0.00 0.88 75 1017.0
20260504045206 55 140 0.0 0.0 0.00 0.00 0.88 74 1017.0
20260504044706 56 170 0.0 1.7 0.00 0.00 0.88 74 1017.0
20260504044206 56 146 0.0 0.0 0.00 0.00 0.88 74 1017.0
20260504043707 56 131 0.0 1.7 0.00 0.00 0.88 73 1017.0
20260504043207 56 132 0.0 0.0 0.00 0.00 0.88 73 1017.0
20260504042706 56 120 0.0 1.7 0.00 0.00 0.88 74 1017.0
20260504042206 56 134 0.0 1.7 0.00 0.00 0.88 73 1017.0
20260504041706 56 234 0.0 1.7 0.00 0.00 0.88 73 1017.0
20260504041207 56 142 0.0 0.0 0.00 0.00 0.88 74 1017.0
20260504040707 56 141 0.0 0.0 0.00 0.00 0.88 74 1017.0
20260504040206 56 146 0.0 0.0 0.00 0.00 0.88 74 1017.0
20260504035709 56 143 0.0 0.0 0.00 0.00 0.88 74 1017.0
20260504035206 56 128 0.0 0.0 0.00 0.00 0.88 74 1017.0
20260504034707 56 127 0.0 0.0 0.00 0.00 0.88 75 1017.0
20260504034206 56 143 0.0 0.0 0.00 0.00 0.88 75 1017.0
20260504033706 55 176 0.0 0.0 0.00 0.00 0.88 76 1017.0
20260504033206 55 172 0.0 0.0 0.00 0.00 0.88 76 1017.0
20260504032706 55 125 0.0 0.0 0.00 0.00 0.88 78 1017.0
20260504032206 55 134 0.0 0.0 0.00 0.00 0.88 78 1017.0
20260504031706 55 156 0.0 0.0 0.00 0.00 0.88 79 1017.0
20260504031206 55 147 0.0 0.0 0.00 0.00 0.88 79 1017.0
20260504030707 54 127 0.0 0.0 0.00 0.00 0.88 79 1017.0
20260504030207 54 167 0.0 0.0 0.00 0.00 0.88 80 1017.0
20260504025706 54 171 0.0 0.0 0.00 0.00 0.88 80 1017.0
20260504025207 54 142 0.0 0.0 0.00 0.00 0.88 81 1017.0
20260504024707 54 160 0.0 0.0 0.00 0.00 0.88 80 1017.0
20260504024206 54 186 0.0 0.0 0.00 0.00 0.88 81 1017.0
20260504023706 54 174 0.0 0.0 0.00 0.00 0.88 81 1017.0
20260504023206 55 155 0.0 0.0 0.00 0.00 0.88 81 1017.0
20260504022706 55 151 0.0 0.0 0.00 0.00 0.88 81 1017.0
20260504022206 55 184 0.0 0.0 0.00 0.00 0.88 80 1017.0
20260504021706 55 172 0.0 0.0 0.00 0.00 0.88 79 1017.0
20260504021207 55 165 0.0 0.0 0.00 0.00 0.88 78 1017.0
20260504020706 56 161 0.0 0.0 0.00 0.00 0.88 79 1017.0
20260504020207 56 134 0.0 0.0 0.00 0.00 0.88 78 1017.0
20260504015706 56 149 0.0 0.0 0.00 0.00 0.88 77 1017.0
20260504015208 57 155 0.0 0.0 0.00 0.00 0.88 76 1017.0
20260504014706 57 164 0.0 0.0 0.00 0.00 0.88 75 1017.0
20260504014206 57 150 0.0 0.0 0.00 0.00 0.88 74 1017.0
20260504013706 58 160 0.0 0.0 0.00 0.00 0.88 73 1017.0
20260504013206 58 168 0.0 0.0 0.00 0.00 0.88 72 1017.0
20260504012706 59 174 0.0 0.0 0.00 0.00 0.88 70 1017.0
20260504012206 59 180 0.0 0.0 0.00 0.00 0.88 69 1017.0
20260504011706 60 150 0.0 0.0 0.00 0.00 0.88 67 1017.0
20260504011206 61 150 0.0 0.0 0.00 0.00 0.88 67 1017.0
20260504010708 61 137 0.0 0.0 0.00 0.00 0.88 66 1017.0
20260504010207 62 139 0.0 0.0 0.00 0.00 0.88 62 1017.0
20260504005706 62 161 0.0 0.0 0.00 0.00 0.88 58 1017.0
20260504005206 63 176 0.0 0.0 0.00 0.00 0.88 58 1017.0
20260504004706 64 166 0.0 0.0 0.00 0.00 0.88 58 1017.0
20260504004206 64 144 0.0 0.0 0.00 0.00 0.88 58 1017.0
20260504003706 65 123 0.0 0.0 0.00 0.00 0.88 56 1017.0
20260504003206 66 137 0.0 0.0 0.00 0.00 0.88 53 1017.0
20260504002706 66 151 0.0 0.0 0.00 0.00 0.88 52 1017.0
20260504002206 67 172 0.0 0.0 0.00 0.00 0.88 51 1017.0
20260504001706 67 177 0.0 0.0 0.00 0.00 0.88 51 1017.0
20260504001206 68 148 0.0 0.0 0.00 0.00 0.88 51 1017.0
20260504000707 68 159 0.0 0.9 0.00 0.00 0.88 49 1017.0
20260504000206 69 188 0.0 2.6 0.00 0.00 0.88 49 1017.0
20260503235706 69 171 0.0 0.0 0.00 0.00 0.88 48 1017.0
20260503235206 70 196 0.0 2.6 0.00 0.00 0.88 46 1017.0
20260503234706 70 113 0.0 0.9 0.00 0.00 0.88 48 1017.0
20260503234206 71 156 0.0 5.2 0.00 0.00 0.88 46 1017.0
20260503233709 72 169 0.0 2.6 0.00 0.00 0.88 45 1017.0
20260503233206 72 263 0.0 2.6 0.00 0.00 0.88 45 1017.0
20260503232706 72 173 0.9 6.1 0.00 0.00 0.88 42 1017.0
20260503232207 73 88 0.9 2.6 0.00 0.00 0.88 42 1017.0
20260503231706 73 111 2.6 7.0 0.00 0.00 0.88 41 1017.0
20260503231207 74 172 1.7 5.2 0.00 0.00 0.88 39 1017.0
20260503230706 75 27 0.9 5.2 0.00 0.00 0.88 40 1017.0
20260503230206 76 106 0.9 5.2 0.00 0.00 0.88 40 1017.0
20260503225706 76 157 1.7 5.2 0.00 0.00 0.88 39 1018.0
20260503225206 76 92 0.9 4.3 0.00 0.00 0.88 40 1018.0
20260503224706 77 56 1.7 5.2 0.00 0.00 0.88 40 1018.0
20260503224206 78 155 0.0 3.5 0.00 0.00 0.88 38 1018.0
20260503223707 77 143 0.9 6.1 0.00 0.00 0.88 40 1018.0
20260503223206 76 165 0.9 3.5 0.00 0.00 0.88 42 1018.0
20260503222707 76 99 1.7 5.2 0.00 0.00 0.88 41 1018.0
20260503222206 78 247 0.9 3.5 0.00 0.00 0.88 40 1018.0
20260503221706 76 175 1.7 5.2 0.00 0.00 0.88 42 1018.0
20260503221206 77 195 2.6 6.1 0.00 0.00 0.88 40 1018.0
20260503220706 77 129 1.7 3.5 0.00 0.00 0.88 42 1018.0
20260503220206 76 7 0.9 4.3 0.00 0.00 0.88 39 1018.0
20260503215711 75 225 2.6 7.0 0.00 0.00 0.88 40 1018.0
20260503215206 75 178 2.6 6.1 0.00 0.00 0.88 43 1018.0
20260503214706 75 282 2.6 7.8 0.00 0.00 0.88 39 1018.0
20260503214207 77 328 1.7 7.0 0.00 0.00 0.88 39 1018.0
20260503213706 77 146 0.9 5.2 0.00 0.00 0.88 40 1019.0
20260503213208 75 138 2.6 7.0 0.00 0.00 0.88 39 1019.0
20260503212706 77 102 0.9 3.5 0.00 0.00 0.88 40 1019.0
20260503212207 76 185 0.9 6.1 0.00 0.00 0.88 39 1019.0
20260503211706 74 244 2.6 7.0 0.00 0.00 0.88 40 1019.0
20260503211206 76 333 1.7 5.2 0.00 0.00 0.88 42 1019.0
20260503210707 76 251 1.7 3.5 0.00 0.00 0.88 38 1019.0
20260503210208 75 157 0.9 4.3 0.00 0.00 0.88 43 1019.0
20260503205706 74 257 2.6 5.2 0.00 0.00 0.88 41 1019.0
20260503205207 73 283 4.3 9.6 0.00 0.00 0.88 41 1019.0
20260503204706 73 145 3.5 7.8 0.00 0.00 0.88 40 1019.0
20260503204206 76 287 1.7 7.8 0.00 0.00 0.88 37 1019.0
20260503203706 75 169 1.7 5.2 0.00 0.00 0.88 40 1020.0
20260503203207 75 239 1.7 6.1 0.00 0.00 0.88 40 1020.0
20260503202706 75 283 1.7 6.1 0.00 0.00 0.88 43 1020.0
20260503202206 77 287 1.7 4.3 0.00 0.00 0.88 39 1020.0
20260503201706 76 190 0.0 2.6 0.00 0.00 0.88 42 1020.0
20260503201206 73 152 1.7 6.1 0.00 0.00 0.88 44 1020.0
20260503200706 74 337 2.6 7.0 0.00 0.00 0.88 41 1020.0
20260503200206 74 327 1.7 3.5 0.00 0.00 0.88 40 1020.0
20260503195706 72 185 2.6 7.0 0.00 0.00 0.88 44 1020.0
20260503195206 71 195 3.5 8.7 0.00 0.00 0.88 43 1020.0
20260503194706 73 289 3.5 8.7 0.00 0.00 0.88 41 1020.0
20260503194206 74 158 2.6 5.2 0.00 0.00 0.88 40 1021.0
20260503193706 72 142 2.6 6.1 0.00 0.00 0.88 46 1021.0
20260503193206 72 267 2.6 7.0 0.00 0.00 0.88 44 1021.0
20260503192706 72 17 2.6 8.7 0.00 0.00 0.88 44 1021.0